Regional Weather Roundup
Issued by NWS

Home | Current Version | Previous Version | Graphics & Text | Print | Product List | Glossary On
Versions: 1 2 3 4 5 6 7 8 9 10 11 12 13 14 15 16 17 18 19 20 21 22 23 24 25 26 27 28 29 30 31 32 33 34 35 36 37 38 39 40 41 42 43 44 45 46 47 48 49 50
000
ASUS43 KMKX 302321
RWRWI

WISCONSIN REGIONAL WEATHER ROUNDUP
NATIONAL WEATHER SERVICE MILWAUKEE/SULLIVAN WI
600 PM CDT THU JUL 30 2015

NOTE: "FAIR" INDICATES FEW OR NO CLOUDS BELOW 12,000 FEET WITH NO
SIGNIFICANT WEATHER AND/OR OBSTRUCTIONS TO VISIBILITY.

WIZ001-002-006>008-014>016-023>028-310000-
NORTHWEST WISCONSIN

CITY           SKY/WX    TMP DP  RH WIND       PRES   REMARKS
SUPERIOR ARPT  SUNNY     81  55  41 W14G26    29.91S HX  80
ASHLAND        SUNNY     81  53  37 W14G21    29.90S HX  80
HAYWARD        MOSUNNY   80  54  40 W8        29.96S HX  80
SIREN          MOSUNNY   82  52  35 W16G24    29.98S HX  81
CUMBERLAND     SUNNY     79  52  38 W17       29.99F
RICE LAKE      MOSUNNY   79  54  42 W13G18    30.00S
CHETEK         SUNNY     81  58  46 W14       29.99S HX  81
LADYSMITH      SUNNY     80  57  45 W12G21    29.99S HX  80
EAU CLAIRE     SUNNY     83  56  39 W17G24    29.99S HX  82
MENOMONIE      MOSUNNY   83  53  34 W14G23    30.00S HX  82
NEW RICHMOND   SUNNY     81  55  40 W13G18    30.01F HX  81
OSCEOLA        SUNNY     79  55  43 W10G16    30.03S
$$

WIZ003>005-009-010-017-018-310000-
NORTH CENTRAL WISCONSIN

CITY           SKY/WX    TMP DP  RH WIND       PRES   REMARKS
MANITOWISH WTR MOSUNNY   71  58  63 SW5       29.95F
ARBOR VITAE    SUNNY     74  56  54 SW5       29.96S
WOODRUFF       SUNNY     74  56  54 SW5       29.96S
RHINELANDER    MOSUNNY   74  56  53 W9        29.98F
EAGLE RIVER    MOSUNNY   68  59  72 SW6       29.96S
LAND O LAKES   MOSUNNY   73  56  56 SW5       29.95F
PHILLIPS       SUNNY     76  59  55 W8        29.96S
TOMAHAWK       MOSUNNY   65  62  89 SW3       29.99S
MEDFORD        PTSUNNY   77  58  51 W15G21    29.99S
MERRILL        NOT AVBL
$$

WIZ029-030-035-036-043>047-310000-
CENTRAL WISCONSIN

CITY           SKY/WX    TMP DP  RH WIND       PRES   REMARKS
WAUSAU         PTSUNNY   80  54  40 W20G26    29.95F HX  80
MOSINEE        MOSUNNY   79  54  41 W18G24    29.99S
MARSHFIELD     MOSUNNY   79  52  38 W13G21    29.99S
STEVENS POINT  MOSUNNY   81  53  38 W12G21    29.98S HX  80
WAUPACA        MOSUNNY   85  49  28 W14G20    29.96S HX  83
WAUTOMA        SUNNY     86  51  29 W16G23    29.97S HX  84
WISC RAPIDS    SUNNY     84  50  30 W15G22    29.99S HX  82
CAMP DOUGLAS   SUNNY     82  58  44 W13G20    30.00S HX  82
$$

WIZ011>013-019>022-031-037>040-048>050-310000-
NORTHEAST WISCONSIN

CITY           SKY/WX    TMP DP  RH WIND       PRES   REMARKS
ANTIGO         LGT RAIN  65  60  82 NW12G18   30.00R
SHAWANO        PTSUNNY   81  52  36 W7G16     29.94S HX  80
OCONTO         MOSUNNY   83  56  40 W9G16     29.90S HX  82
STURGEON BAY   PTSUNNY   79  55  44 NW6       29.93S
GREEN BAY      MOSUNNY   81  58  45 W10       29.93S HX  81
MANITOWOC      MOSUNNY   84  52  33 MISG      29.93S HX  82
APPLETON       MOSUNNY   82  48  30 W17G23    29.96R HX  81
CLINTONVILLE   MOSUNNY   73  59  60 N3        29.95R
OSHKOSH        SUNNY     84  53  34 W14G23    29.95S HX  82
$$

WIZ032>034-041-042-053>061-310000-
SOUTHWEST WISCONSIN

CITY           SKY/WX    TMP DP  RH WIND       PRES   REMARKS
LA CROSSE      SUNNY     85  56  37 W15       30.01F HX  84
SPARTA         SUNNY     83  51  32 W14       30.02S HX  82
VIROQUA        SUNNY     80  55  41 W8        30.05S HX  80
BOSCOBEL       SUNNY     86  56  35 W9G17     30.03S HX  85
PRAIRIE DU CHI SUNNY     86  51  30 NW12      30.03S HX  84
PLATTEVILLE    SUNNY     84  58  41 NW14      30.04F HX  83
$$

WIZ056-057-062-063-064-067-068-310000-
SOUTH CENTRAL WISCONSIN

CITY           SKY/WX    TMP DP  RH WIND       PRES   REMARKS
REEDSBURG      SUNNY     84  54  34 NW13G21   30.00S HX  83
BARABOO/DELLS  SUNNY     84  47  27 W14G23    30.00F HX  82
LONE ROCK      SUNNY     85  53  33 W18G24    30.01F HX  83
MINERAL POINT  SUNNY     84  50  30 W10G17    30.04S HX  82
MADISON        MOSUNNY   85  54  34 NW8       30.00S HX  83
MIDDLETON      SUNNY     85  48  27 NW15G25   30.01S HX  83
WATERTOWN      SUNNY     83  56  39 W12G21    29.99S HX  82
MONROE         SUNNY     84  54  34 W16G22    30.03S HX  83
JANESVILLE     SUNNY     88  52  29 W12G20    30.00F HX  85
$$

WIZ051-052-058>065-066-070>072-310000-
SOUTHEAST WISCONSIN

CITY           SKY/WX    TMP DP  RH WIND       PRES   REMARKS
MILWAUKEE      MOSUNNY   87  49  26 W20G31    29.97F HX  84
WAUKESHA       MOSUNNY   82  52  34 W20G25    30.00S HX  81
MILWAUKEE/TIMM SUNNY     84  46  26 W21G26    29.98S HX  82
RACINE         MOSUNNY   85  53  33 W9        29.99F HX  83
BURLINGTON     SUNNY     83  50  31 W9        29.99F HX  82
KENOSHA        SUNNY     84  56  38 W13       29.99F HX  83
FOND DU LAC    SUNNY     85  54  34 W9        29.96S HX  83
SHEBOYGAN      SUNNY     84  54  35 W15G23    29.94S HX  83
WEST BEND      SUNNY     82  46  28 W17G23    29.97S HX  81
JUNEAU         SUNNY     82  53  37 W12G18    30.00S HX  81
$$

LSZ147-162-310000-
LAKE SUPERIOR

STATION/POSITION TIME  TEMP    WIND        PRES    WAVE
                       AIR SEA DIR/SP/G            HT/PER
                 (UTC) (F)     (DEG/KT/KT) (MB)    (FT/S)
W MID LAKE BUOY  2250   61 53  230/ 14/ 14 1010.5S   2/ 4
DEVILS ISLAND    2300   70     230/ 10/ 12 1011.6F
PORT WING        2200   77     250/ 13/ 19 1012.5
SAXON HARBOR     2200   75                 1012.2F
$$

LMZ867-665-643>646-310000-
LAKE MICHIGAN

STATION/POSITION TIME  TEMP    WIND        PRES    WAVE
                       AIR SEA DIR/SP/G            HT/PER
                 (UTC) (F)     (DEG/KT/KT) (MB)    (FT/S)
CHAMBERS ISLAND  2200   80     310/  4/ 11 1011.9S
S GREEN BAY BUOY 2300   74 70  260/ 10/ 12 1014.1S
N MID LAKE BUOY  2250   72 69  270/  6/  6 1011.5R   2/ 5
NORTHPORT PIER   2200   78     280/  3/  8 1011.9S
SISTER BAY       2214   79     300/ 12/ 14   N/A
ALGOMA LAKESHORE 2242          320/  7/ 12   N/A
KEWAUNEE LAKESHO 2200   84     280/ 10/ 17 1012.5F
SHEBOYGAN LAKESH 2300   84     290/ 17/ 22 1013.6S
PORT WASHINGTON  2200   88     280/ 11/ 23 1014.9S
ATWATER BUOY     2300   79 63  260/ 17/ 19 1016.0F
MILWAUKEE LAKESH 2300   85     290/ 14/ 18   N/A
KENOSHA   LAKESH 2300   85     290/ 11/ 19 1014.6F
$$

TC  - TEMPERATURE IN CELSIUS
VSB - VISIBILITY IN STATUTE MILES
WCI - WIND CHILL INDEX
HX  - HEAT INDEX



USA.gov is the U.S. government's official web portal to all federal, state and local government web resources and services.